Wind_Speed
25 31 25 22 21 24 27 25 16 24 33 28 27 28 29 31 31 27 23 21 19 16 15 14 11 10 8 8 9 10 16 25 30 33 32 32 33 41 44 31 47 55 50 43
34 10 18 28 22 21 25 26 27 24 27 25 29 28 27 31 29 30 27 23 20 17 16 15 13 11 11 10 9 9 13 21 30 33 33 32 36 41 47 35 36 35 49 46
9 12 26 17 2 9 17 22 21 23 19 24 27 27 27 25 28 31 29 25 22 16 16 15 14 13 11 13 11 9 11 19 23 32 32 34 32 37 37 42 39 39 37 39
16 16 2 4 15 17 19 22 23 16 19 22 26 28 28 27 28 31 32 27 24 18 15 16 15 14 12 12 14 11 12 16 19 26 29 32 34 32 35 34 42 34 34 34
6 9 26 16 8 11 18 26 10 16 24 26 27 28 27 29 28 30 31 27 24 21 15 15 16 15 15 12 14 15 12 16 17 16 25 30 30 27 32 30 34 36 44 42
5 5 5 6 14 19 20 11 10 27 26 26 28 28 28 30 28 29 31 28 25 22 18 14 15 16 16 16 13 16 14 16 17 15 20 25 28 33 37 36 27 29 37 35
19 11 15 19 10 15 8 14 28 29 27 26 27 28 28 29 27 28 28 27 23 23 19 16 15 16 17 16 16 15 17 16 17 18 17 20 25 30 34 34 35 34 37 32
6 9 12 7 11 14 22 24 26 27 26 27 27 27 26 27 28 27 28 28 25 22 20 17 15 16 17 18 17 16 16 19 19 18 18 18 22 24 26 28 33 41 35 34
13 16 32 30 27 26 27 25 25 26 27 27 27 28 28 27 27 26 27 28 25 23 20 18 16 16 16 17 18 17 17 16 21 19 20 21 21 24 27 30 33 33 34 38
28 10 23 24 24 23 22 25 27 28 29 29 28 28 28 28 27 26 25 27 26 23 21 18 18 17 17 17 18 19 18 17 17 21 22 22 23 24 27 27 28 33 33 34
24 17 23 21 24 22 25 28 29 31 31 31 30 28 29 27 27 27 26 26 26 24 22 20 18 17 18 18 18 19 19 18 18 18 20 23 24 25 26 26 29 30 30 35
14 19 26 29 23 25 29 31 32 34 33 34 32 30 29 27 27 27 27 26 26 24 23 20 18 17 18 19 18 18 19 18 18 19 18 20 23 25 26 26 28 31 32 34
17 25 33 27 23 24 26 29 33 34 34 35 34 32 29 28 27 27 26 27 27 25 24 22 19 18 19 19 19 18 18 18 18 17 18 17 19 21 23 25 26 27 31 34
18 29 27 25 24 24 26 30 32 32 35 37 34 32 30 29 27 26 26 27 27 27 25 23 20 18 20 19 20 19 18 18 18 17 17 17 17 18 20 22 24 26 29 28
26 28 28 29 26 27 28 28 29 30 36 35 32 29 29 27 27 26 26 27 27 28 26 23 20 18 21 20 20 19 18 18 18 18 17 17 17 17 17 19 21 22 24 26
30 33 33 33 30 28 29 27 29 31 37 34 31 29 28 26 26 26 26 27 28 28 26 21 18 19 19 19 20 20 19 18 18 17 17 17 18 18 18 18 18 19 21 23
37 38 38 38 32 28 28 27 30 32 36 34 31 29 26 26 25 24 25 27 28 27 24 19 18 18 17 18 20 19 19 19 18 18 18 18 18 18 19 19 19 19 18 20
39 42 41 40 34 29 28 28 29 32 34 33 30 28 26 25 24 24 25 26 27 25 22 18 17 17 16 18 20 20 19 19 19 19 20 20 20 20 20 21 21 21 20 20
45 48 43 40 32 28 28 29 31 34 34 31 28 27 26 25 24 24 25 27 26 22 18 17 16 15 15 18 20 21 21 20 21 21 21 21 22 21 21 21 21 23 23 22
49 48 44 35 30 30 30 31 31 34 33 29 27 27 26 24 23 24 25 26 24 19 16 15 15 14 15 17 20 21 22 23 23 23 23 23 22 22 21 20 19 19 21 22
52 44 40 29 29 31 31 30 32 34 30 26 27 27 25 23 23 23 24 24 19 16 15 14 14 13 14 16 19 20 22 24 24 23 23 22 20 19 18 17 18 18 18 18
43 41 34 28 30 31 30 30 31 30 25 26 27 26 24 23 22 22 22 20 15 14 14 14 14 13 14 15 16 17 19 19 20 20 21 21 21 20 20 20 20 20 19 19
41 36 28 28 31 31 28 29 29 24 24 27 26 24 22 21 21 20 17 15 14 13 13 12 14 14 15 17 17 17 18 19 20 21 22 23 23 24 24 24 23 23 23 22
37 31 27 29 31 30 27 26 22 23 25 25 23 22 20 20 18 16 13 11 12 12 11 12 13 16 17 17 18 19 21 22 23 24 25 25 26 26 26 26 26 25 25 25
33 27 26 29 30 27 24 21 21 24 24 22 20 19 17 15 13 12 10 9 9 10 10 12 14 16 16 18 19 21 23 24 25 26 27 27 27 28 28 29 28 27 28 28
26 24 28 30 27 23 20 20 23 24 21 19 17 15 13 11 9 8 8 9 10 11 11 13 14 16 17 18 19 21 22 24 25 27 29 29 30 30 30 30 30 29 30 30
24 26 30 26 22 19 20 23 23 21 19 16 14 10 9 7 7 7 8 9 10 10 11 12 13 15 16 17 18 19 21 22 24 26 28 30 30 30 30 29 29 31 31 31
Wind_Direction
295 304 299 296 289 276 269 277 262 303 305 334 340 335 342 342 343 341 338 326 316 320 331 332 312 287 260 236 218 211 217 221 227 215 222 234 227 237 235 218 201 209 213 212
307 310 309 304 295 265 270 276 284 304 309 329 344 340 344 345 347 347 341 334 321 311 317 324 319 294 272 255 230 211 212 218 216 221 222 227 223 219 215 215 198 203 231 217
277 295 306 292 282 271 274 286 304 307 328 328 341 340 342 346 347 348 345 337 329 313 302 310 315 306 276 259 246 224 207 220 207 214 214 223 227 227 230 239 233 212 200 229
292 329 299 264 304 311 304 299 299 313 324 329 338 345 344 347 344 345 344 338 330 320 299 296 305 309 296 264 254 243 214 218 218 200 199 201 214 222 227 226 248 249 240 207
274 292 292 292 287 309 314 322 288 326 343 343 337 342 340 344 343 342 340 335 330 322 306 287 290 297 300 282 259 255 229 221 217 200 203 208 215 220 227 230 221 225 232 234
263 280 262 282 319 327 326 312 327 336 335 337 338 337 338 341 340 340 339 336 331 325 312 292 279 285 291 292 275 259 245 231 221 207 195 197 200 199 205 204 221 222 211 212
252 253 273 292 303 326 332 321 325 325 327 332 335 334 335 337 337 336 335 334 329 323 314 297 279 273 280 285 285 271 259 249 233 224 208 191 192 200 208 214 216 222 221 223
223 234 272 276 303 301 314 323 325 321 319 325 330 331 331 330 332 333 334 333 330 325 316 301 283 271 269 276 279 280 267 255 247 235 232 221 210 206 210 211 209 212 217 219
260 269 296 303 306 297 303 312 322 325 322 322 324 326 327 329 328 329 331 330 329 324 317 305 287 274 267 266 271 275 275 263 254 246 243 233 224 215 210 210 214 215 206 219
285 339 322 307 305 298 294 309 318 322 331 321 318 320 322 325 325 324 327 328 326 323 317 307 292 276 269 264 264 269 270 270 263 256 244 241 238 233 222 217 209 205 206 221
281 319 329 316 311 309 305 306 312 318 322 327 318 316 318 321 320 320 321 324 324 321 318 307 295 281 270 265 261 261 265 266 266 264 258 245 240 238 238 232 227 226 223 223
293 314 320 325 311 306 303 303 307 312 318 324 319 314 313 316 316 315 316 318 320 319 315 305 292 279 266 263 261 260 260 263 263 262 261 258 250 242 239 240 234 232 231 232
304 312 315 319 306 299 298 300 302 311 316 318 314 309 312 311 312 311 310 313 316 316 312 302 287 275 263 255 258 257 257 258 261 260 260 259 258 252 246 243 242 238 235 234
308 323 322 310 305 304 297 298 304 311 315 312 309 305 305 309 308 307 304 308 312 313 308 296 283 270 261 251 250 255 255 255 256 258 257 258 258 259 257 250 247 244 241 240
339 334 324 319 309 305 306 303 305 311 316 314 308 307 305 302 306 302 300 303 309 309 303 292 280 268 260 250 242 249 254 253 254 255 256 255 256 257 257 258 257 255 252 248
336 337 329 324 315 306 307 304 307 308 315 316 310 306 303 302 303 299 298 301 306 306 300 290 277 265 260 251 240 242 250 252 252 255 258 258 257 257 258 257 256 258 259 258
334 332 327 325 317 305 306 304 307 310 314 314 309 305 303 300 301 297 297 300 304 304 298 284 272 266 257 245 239 239 245 249 252 255 259 263 264 263 261 261 260 258 254 257
329 330 324 318 312 305 307 304 308 315 316 312 308 304 303 302 299 297 297 300 303 302 292 281 272 266 254 240 237 239 241 244 252 261 266 269 269 269 267 265 263 261 259 256
327 327 323 317 307 302 302 301 304 313 314 308 305 304 305 302 298 297 299 302 303 299 289 276 271 264 253 241 238 239 242 248 255 261 268 272 275 274 272 268 265 263 261 260
323 320 320 314 307 302 300 300 302 309 310 305 304 305 303 300 298 297 299 300 300 295 280 270 269 264 253 243 241 242 246 251 258 263 269 272 274 276 276 273 267 263 261 259
318 314 316 305 308 306 300 299 302 306 305 302 305 305 302 299 296 297 298 298 298 286 276 268 264 262 257 248 245 245 248 254 260 266 270 272 274 273 270 267 268 268 265 263
314 314 308 301 311 312 304 299 303 305 301 303 306 304 300 297 297 297 298 296 294 281 271 265 263 259 257 254 253 253 255 258 261 264 267 269 270 270 269 269 267 265 264 263
313 312 300 301 312 311 304 302 303 302 302 305 305 302 298 298 297 297 294 290 288 281 271 265 262 261 259 259 262 263 266 269 271 271 272 273 272 271 270 269 266 265 264 263
310 305 295 305 311 309 303 302 301 303 305 305 302 299 298 298 298 293 291 287 283 280 274 266 264 264 267 271 271 270 269 269 270 270 270 270 271 271 270 268 267 266 263 262
307 297 299 308 310 306 303 302 304 306 306 303 300 299 298 295 289 287 288 287 285 282 279 276 275 276 277 274 274 274 274 274 274 273 273 273 271 270 270 270 268 266 265 263
299 298 306 309 308 303 303 305 307 306 304 302 300 298 292 287 284 285 290 290 289 290 288 287 285 284 284 282 280 279 278 277 276 275 274 272 270 269 268 266 266 264 264 263
295 304 309 307 303 302 304 308 307 305 303 302 297 288 280 277 285 293 296 297 298 300 300 299 298 297 295 294 292 290 288 285 283 279 276 275 274 272 269 265 262 260 259 259
Height
3021 3016 3013 3008 3008 3005 3002 3000 2999 2988 2983 2978 2973 2967 2962 2956 2950 2944 2941 2938 2936 2934 2933 2931 2929 2930 2931 2930 2930 2931 2933 2938 2943 2948 2954 2959 2966 2975 2978 2983 2989 2990 2998 3007
3012 3009 3008 3002 3000 2999 2996 2994 2990 2986 2980 2976 2970 2965 2960 2955 2949 2943 2939 2935 2932 2932 2930 2929 2927 2927 2928 2929 2929 2930 2930 2935 2940 2944 2949 2954 2961 2969 2976 2977 2979 2985 2991 2999
3009 3007 3002 2997 2994 2993 2990 2987 2986 2982 2978 2972 2968 2963 2958 2954 2948 2943 2938 2933 2930 2928 2928 2927 2926 2925 2925 2927 2927 2927 2928 2931 2933 2939 2943 2950 2954 2962 2967 2969 2975 2978 2983 2989
3010 3005 3003 2990 2989 2988 2985 2982 2979 2977 2974 2970 2964 2960 2956 2951 2946 2941 2936 2932 2928 2926 2925 2924 2924 2923 2922 2924 2923 2924 2925 2929 2931 2932 2937 2943 2949 2954 2957 2962 2967 2972 2979 2981
3014 3009 2994 2985 2986 2985 2981 2976 2974 2972 2967 2962 2959 2956 2952 2948 2944 2940 2935 2931 2926 2923 2922 2921 2921 2920 2919 2920 2920 2921 2921 2925 2927 2927 2930 2934 2940 2945 2952 2956 2958 2964 2971 2976
3013 3010 2996 2981 2981 2979 2976 2971 2970 2968 2965 2961 2956 2952 2948 2945 2941 2937 2933 2928 2924 2920 2919 2919 2918 2917 2917 2916 2917 2917 2917 2919 2921 2923 2924 2927 2933 2939 2946 2947 2953 2960 2963 2969
3008 3006 2986 2981 2980 2978 2977 2976 2967 2964 2961 2958 2954 2950 2945 2942 2939 2935 2932 2927 2923 2919 2915 2915 2915 2914 2913 2913 2913 2913 2913 2914 2916 2918 2920 2922 2925 2930 2935 2941 2946 2951 2956 2964
3001 2999 2984 2978 2978 2977 2974 2969 2965 2962 2958 2954 2951 2947 2944 2939 2935 2932 2928 2923 2920 2916 2913 2911 2911 2911 2910 2910 2910 2909 2910 2910 2911 2913 2916 2917 2921 2924 2929 2935 2939 2942 2946 2954
2997 2983 2978 2976 2973 2971 2968 2965 2962 2959 2954 2950 2947 2943 2939 2936 2932 2928 2924 2920 2916 2913 2910 2908 2907 2906 2907 2906 2906 2906 2906 2907 2908 2909 2911 2912 2915 2918 2922 2926 2930 2934 2935 2948
2985 2978 2975 2972 2969 2965 2963 2960 2957 2954 2950 2946 2942 2938 2935 2931 2927 2923 2920 2916 2913 2909 2906 2904 2902 2902 2902 2903 2902 2902 2902 2903 2904 2905 2906 2908 2910 2912 2914 2918 2920 2925 2929 2938
2974 2974 2970 2967 2964 2961 2959 2956 2953 2949 2945 2940 2936 2933 2930 2926 2922 2918 2915 2912 2909 2905 2902 2900 2898 2897 2897 2897 2898 2898 2898 2899 2900 2901 2901 2903 2905 2907 2909 2910 2912 2916 2923 2929
2970 2969 2965 2962 2958 2955 2953 2949 2946 2943 2938 2934 2930 2927 2924 2921 2917 2913 2910 2907 2904 2901 2898 2895 2894 2893 2892 2892 2893 2894 2894 2894 2896 2896 2897 2897 2898 2901 2902 2905 2907 2911 2914 2919
2967 2964 2959 2955 2951 2949 2946 2943 2939 2935 2931 2927 2923 2920 2917 2914 2911 2907 2905 2901 2898 2895 2892 2890 2888 2888 2887 2888 2888 2889 2891 2891 2891 2892 2893 2894 2894 2895 2897 2899 2901 2903 2906 2911
2962 2957 2954 2949 2945 2942 2938 2935 2931 2928 2924 2919 2916 2913 2910 2907 2904 2901 2898 2896 2893 2889 2886 2883 2882 2882 2881 2883 2884 2885 2886 2888 2888 2889 2890 2891 2891 2893 2893 2894 2896 2898 2900 2902
2955 2951 2947 2942 2939 2935 2931 2927 2924 2921 2916 2912 2907 2905 2902 2900 2897 2894 2891 2888 2886 2883 2878 2876 2875 2875 2875 2877 2878 2880 2881 2883 2884 2885 2886 2887 2887 2888 2888 2889 2890 2891 2893 2895
2950 2946 2941 2936 2932 2927 2923 2920 2916 2913 2909 2904 2900 2897 2894 2891 2889 2886 2884 2881 2879 2875 2871 2869 2869 2868 2869 2871 2873 2874 2876 2878 2879 2880 2881 2882 2883 2884 2884 2884 2885 2886 2887 2888
2942 2939 2934 2928 2923 2919 2915 2912 2909 2905 2900 2895 2892 2889 2886 2883 2881 2879 2876 2874 2872 2868 2864 2863 2862 2862 2863 2865 2867 2869 2870 2872 2873 2875 2876 2876 2877 2878 2879 2879 2880 2881 2882 2884
2936 2931 2925 2918 2913 2909 2906 2903 2900 2896 2891 2887 2884 2880 2878 2875 2873 2871 2869 2867 2864 2860 2857 2857 2856 2856 2857 2859 2861 2863 2865 2867 2868 2868 2869 2870 2871 2872 2872 2873 2873 2875 2876 2877
2928 2921 2916 2910 2904 2901 2898 2895 2891 2887 2883 2879 2876 2873 2870 2868 2865 2863 2861 2859 2856 2853 2852 2851 2851 2851 2852 2854 2855 2857 2859 2861 2862 2863 2863 2864 2864 2864 2864 2865 2866 2867 2868 2870
2917 2912 2906 2901 2896 2893 2890 2886 2883 2879 2875 2871 2868 2865 2863 2860 2858 2856 2853 2851 2849 2847 2846 2846 2846 2846 2847 2848 2850 2852 2853 2855 2856 2856 2857 2857 2857 2857 2857 2858 2858 2859 2860 2861
2907 2901 2897 2893 2890 2885 2881 2878 2875 2871 2867 2863 2860 2857 2855 2853 2851 2849 2846 2844 2843 2840 2840 2840 2841 2842 2842 2843 2844 2846 2847 2848 2849 2849 2850 2850 2851 2851 2852 2852 2852 2853 2854 2855
2896 2891 2886 2883 2880 2876 2872 2870 2866 2862 2859 2856 2852 2850 2847 2845 2844 2842 2840 2838 2837 2835 2836 2836 2837 2837 2838 2838 2839 2840 2841 2842 2843 2843 2843 2843 2844 2845 2845 2845 2846 2847 2848 2849
2886 2881 2877 2875 2871 2867 2864 2861 2857 2854 2852 2849 2845 2842 2840 2838 2837 2836 2835 2833 2831 2831 2831 2832 2832 2833 2833 2833 2834 2835 2836 2836 2836 2837 2836 2836 2836 2837 2837 2838 2839 2840 2841 2842
2876 2871 2869 2866 2862 2858 2855 2852 2849 2847 2845 2842 2839 2836 2834 2832 2831 2830 2829 2828 2827 2827 2828 2828 2828 2827 2828 2829 2829 2829 2829 2829 2828 2829 2829 2829 2828 2828 2829 2830 2830 2831 2833 2834
2865 2862 2860 2857 2853 2850 2847 2845 2843 2840 2838 2835 2832 2830 2828 2827 2827 2826 2825 2825 2824 2824 2824 2824 2823 2823 2824 2823 2822 2822 2821 2821 2820 2820 2819 2819 2819 2819 2819 2820 2820 2821 2822 2823
2856 2854 2852 2848 2845 2842 2840 2839 2836 2833 2831 2828 2826 2825 2824 2823 2823 2822 2822 2822 2822 2821 2820 2819 2819 2818 2817 2817 2816 2815 2814 2813 2812 2811 2809 2809 2809 2809 2809 2810 2810 2811 2811 2812
2849 2847 2844 2840 2838 2836 2835 2832 2829 2827 2825 2823 2822 2821 2821 2820 2820 2819 2819 2819 2818 2817 2816 2815 2814 2813 2812 2810 2809 2808 2806 2805 2803 2801 2800 2799 2798 2798 2798 2799 2799 2800 2801 2802